TimeCST,TemperatureF,Dew PointF,Humidity,Sea Level PressureIn,VisibilityMPH,Wind Direction,Wind SpeedMPH,Gust SpeedMPH,PrecipitationIn,Events,Conditions,WindDirDegrees,DateUTC
12:38 AM,35.6,33.8,93,30.11,5.0,North,6.9,-,0.00,Rain,Light Rain,10,2012-11-05 06:38:00
12:52 AM,35.6,33.8,93,30.11,5.0,North,6.9,-,0.00,,Overcast,10,2012-11-05 06:52:00
12:56 AM,35.1,34.0,96,30.15,5.0,North,8.1,-,0.00,,Overcast,360,2012-11-05 06:56:00
1:56 AM,35.1,34.0,96,30.18,6.0,North,9.2,-,0.00,Rain,Light Rain,350,2012-11-05 07:56:00
2:56 AM,36.0,35.1,97,30.18,4.0,North,8.1,-,0.00,,Overcast,360,2012-11-05 08:56:00
3:56 AM,37.0,35.1,93,30.17,7.0,North,9.2,-,N/A,,Overcast,360,2012-11-05 09:56:00
4:23 AM,37.4,35.6,93,30.14,8.0,North,9.2,-,N/A,,Overcast,360,2012-11-05 10:23:00
4:56 AM,37.0,34.0,89,30.19,5.0,North,10.4,-,N/A,,Overcast,360,2012-11-05 10:56:00
5:56 AM,37.0,34.0,89,30.20,8.0,North,10.4,-,N/A,,Overcast,360,2012-11-05 11:56:00
6:31 AM,35.6,33.8,93,30.16,9.0,North,9.2,-,N/A,,Mostly Cloudy,360,2012-11-05 12:31:00
6:56 AM,34.0,32.0,92,30.19,9.0,NNE,8.1,-,N/A,,Scattered Clouds,30,2012-11-05 12:56:00
7:06 AM,35.6,33.8,93,30.14,9.0,North,10.4,-,N/A,,Mostly Cloudy,10,2012-11-05 13:06:00
7:56 AM,36.0,34.0,93,30.20,6.0,North,8.1,-,N/A,,Overcast,10,2012-11-05 13:56:00
8:56 AM,37.0,34.0,89,30.21,6.0,North,8.1,-,N/A,,Overcast,350,2012-11-05 14:56:00
9:56 AM,37.9,35.1,89,30.22,6.0,NNW,9.2,-,N/A,,Overcast,330,2012-11-05 15:56:00
10:56 AM,37.9,34.0,86,30.22,6.0,NNW,5.8,-,N/A,,Overcast,330,2012-11-05 16:56:00
11:56 AM,39.0,34.0,82,30.21,9.0,NW,5.8,-,N/A,,Overcast,310,2012-11-05 17:56:00
12:56 PM,39.0,34.0,82,30.18,8.0,WNW,5.8,-,N/A,,Overcast,300,2012-11-05 18:56:00
1:56 PM,39.0,34.0,82,30.16,9.0,West,6.9,-,N/A,,Overcast,280,2012-11-05 19:56:00
2:56 PM,37.9,34.0,86,30.14,10.0,West,5.8,-,N/A,,Overcast,280,2012-11-05 20:56:00
3:56 PM,37.9,33.1,83,30.13,10.0,SSW,5.8,-,N/A,,Overcast,200,2012-11-05 21:56:00
4:56 PM,37.0,32.0,82,30.12,10.0,SSW,5.8,-,N/A,,Overcast,200,2012-11-05 22:56:00
5:56 PM,37.0,32.0,82,30.12,10.0,SSW,4.6,-,N/A,,Overcast,210,2012-11-05 23:56:00
6:56 PM,37.0,32.0,82,30.10,10.0,SSW,8.1,-,N/A,,Overcast,200,2012-11-06 00:56:00
7:36 PM,37.4,32.0,81,30.04,10.0,South,6.9,-,N/A,,Overcast,180,2012-11-06 01:36:00
7:56 PM,37.0,32.0,82,30.07,10.0,South,9.2,-,N/A,,Overcast,190,2012-11-06 01:56:00
8:56 PM,37.0,32.0,82,30.06,10.0,South,12.7,-,N/A,,Overcast,180,2012-11-06 02:56:00
9:39 PM,37.4,32.0,81,29.98,10.0,South,10.4,-,N/A,,Overcast,190,2012-11-06 03:39:00
9:56 PM,37.0,32.0,82,30.01,10.0,South,15.0,-,N/A,,Overcast,190,2012-11-06 03:56:00
10:56 PM,37.0,33.1,86,29.97,10.0,South,13.8,-,N/A,,Overcast,190,2012-11-06 04:56:00
11:56 PM,37.0,33.1,86,29.94,10.0,South,16.1,23.0,N/A,,Overcast,190,2012-11-06 05:56:00